Location: *
(51.8167°N, 12.5000°E)
Time: 05:14:28
(UTC+00:00)

Cosmos 2297 Rocket - Pass Details

Date: 16 September 2019
Orbit: 841 x 842 km, 71.0° (Epoch: 14 October)

Event Time Altitude Azimuth Distance (km) Brightness Sun altitude
Exits shadow 19:48:38 27° 180° (S) 1,564 3.3 -21.7°
Maximum altitude 19:51:35 57° 113° (ESE) 988 2.2 -22.1°
Drops below altitude 10° 19:57:08 10° 36° (NE) 2,472 4.6 -22.8°
Sets 19:59:37 0° 33° (NNE) 3,411 5.4 -23.1°
